This is the latest recevied weather packets stored in our database for station/object AA4XD. If no packets are shown the sender has not sent any weather packets the latest 10 day(s).
| Time | Temp. | Humidity | Pressure | Rain* | Wind** | Luminosity | Snow |
|---|---|---|---|---|---|---|---|
| 1777661118 | 32.22° C | 47% | 1009.5 hPa | 0 mm | - | 434 W/m² | - |
| 1777660812 | 31.67° C | 46% | 1009.4 hPa | 0 mm | - | 413 W/m² | - |
| 1777660510 | 31.67° C | 46% | 1009.4 hPa | 0 mm | - | 397 W/m² | - |
| 1777660206 | 32.22° C | 44% | 1009.7 hPa | 0 mm | - | 416 W/m² | - |
| 1777659903 | 32.22° C | 44% | 1009.8 hPa | 0 mm | - | 490 W/m² | - |
| 1777659599 | 32.78° C | 42% | 1009.6 hPa | 0 mm | - | 599 W/m² | - |
| 1777659297 | 32.22° C | 43% | 1009.7 hPa | 0 mm | - | 460 W/m² | - |
| 1777658993 | 32.22° C | 42% | 1009.6 hPa | 0 mm | - | 592 W/m² | - |
| 1777658691 | 32.78° C | 41% | 1009.6 hPa | 0 mm | - | 741 W/m² | - |
| 1777658386 | 32.78° C | 42% | 1010 hPa | 0 mm | - | 735 W/m² | - |
| 1777658084 | 32.78° C | 42% | 1010.1 hPa | 0 mm | - | 918 W/m² | - |
| 1777657780 | 33.33° C | 43% | 1010 hPa | 0 mm | - | 956 W/m² | - |
| 1777657478 | 32.78° C | 44% | 1010.2 hPa | 0 mm | - | 1084 W/m² | - |
| 1777657176 | 32.78° C | 43% | 1010.2 hPa | 0 mm | - | 1088 W/m² | - |
| 1777656873 | 32.78° C | 44% | 1010.2 hPa | 0 mm | - | 1044 W/m² | - |
| 1777656568 | 32.22° C | 46% | 1010.4 hPa | 0 mm | - | 1059 W/m² | - |
| 1777656264 | 31.67° C | 47% | 1010.5 hPa | 0 mm | - | 883 W/m² | - |
| 1777655960 | 31.11° C | 48% | 1010.6 hPa | 0 mm | - | 396 W/m² | - |
| 1777655656 | 31.67° C | 47% | 1010.7 hPa | 0 mm | - | 641 W/m² | - |
| 1777655353 | 32.22° C | 46% | 1010.7 hPa | 0 mm | - | 491 W/m² | - |
| 1777655050 | 31.67° C | 48% | 1010.9 hPa | 0 mm | - | 790 W/m² | - |
| 1777654748 | 31.67° C | 47% | 1010.9 hPa | 0 mm | - | 341 W/m² | - |
| 1777654446 | 31.11° C | 48% | 1011 hPa | 0 mm | - | 473 W/m² | - |
| 1777654143 | 31.67° C | 46% | 1011.1 hPa | 0 mm | - | 275 W/m² | - |
| 1777653841 | 32.78° C | 46% | 1011.4 hPa | 0 mm | - | 365 W/m² | - |
* Rain latest hour (hover to see other rain measurements)
** Current wind speed in m/s (hover to see current wind gust speed)